GW4684 Weather Reports


time (UTC)temp
C
wind
direction
speed
KPH
gust
KPH
rain 1hr
cm
rain 24hr
cm
rain mn
cm
humidity
%
barometer
mb
20260503225509 17 294 12.9 27.4 0.00 0.03 0.00 27 1002.6
20260503225007 17 281 12.9 25.7 0.00 0.03 0.00 30 1002.6
20260503224514 17 239 8.0 24.1 0.00 0.03 0.00 30 1002.8
20260503224009 17 297 11.3 27.4 0.00 0.03 0.00 29 1002.8
20260503223504 17 279 11.3 27.4 0.00 0.03 0.00 29 1002.8
20260503223016 17 287 14.5 25.7 0.00 0.03 0.00 28 1002.9
20260503222507 17 222 9.7 24.1 0.00 0.03 0.00 29 1002.9
20260503222008 17 306 6.4 32.2 0.00 0.03 0.00 28 1003.0
20260503221514 17 241 20.9 32.2 0.00 0.03 0.00 29 1003.0
20260503221009 17 331 9.7 29.0 0.00 0.03 0.00 29 1003.2
20260503220507 17 254 9.7 19.3 0.00 0.03 0.00 30 1003.3
20260503220019 17 295 8.0 19.3 0.00 0.03 0.00 29 1003.3
20260503215512 17 288 9.7 27.4 0.00 0.03 0.00 28 1003.4
20260503215005 17 294 11.3 27.4 0.00 0.03 0.00 28 1003.3
20260503214504 17 287 14.5 27.4 0.00 0.03 0.00 29 1003.5
20260503214007 17 304 9.7 25.7 0.00 0.03 0.00 28 1003.4
20260503213514 17 284 12.9 29.0 0.00 0.03 0.00 28 1003.6
20260503213004 17 304 12.9 29.0 0.00 0.03 0.00 29 1003.6
20260503212504 17 293 16.1 29.0 0.00 0.03 0.00 27 1003.5
20260503212007 17 306 9.7 25.7 0.00 0.03 0.00 28 1003.6
20260503211505 17 221 16.1 29.0 0.00 0.03 0.00 29 1003.7
20260503211003 17 311 11.3 29.0 0.00 0.03 0.00 28 1003.7
20260503210511 17 260 9.7 30.6 0.00 0.03 0.00 28 1003.7
20260503210003 17 261 12.9 30.6 0.00 0.03 0.00 28 1003.9
20260503205507 17 288 14.5 25.7 0.00 0.03 0.00 28 1003.8
20260503205008 17 301 16.1 29.0 0.00 0.03 0.00 28 1003.9
20260503204503 17 238 16.1 29.0 0.00 0.03 0.00 28 1004.0
20260503204005 17 315 14.5 29.0 0.00 0.03 0.00 28 1004.2
20260503203509 17 303 14.5 24.1 0.00 0.03 0.00 29 1004.0
20260503203008 17 245 11.3 22.5 0.00 0.03 0.00 30 1004.0
20260503202506 17 249 11.3 33.8 0.00 0.03 0.00 31 1004.3
20260503202003 17 267 14.5 33.8 0.00 0.03 0.00 30 1004.4
20260503201507 16 295 14.5 32.2 0.00 0.03 0.00 29 1004.3
20260503201007 16 346 17.7 32.2 0.00 0.03 0.00 29 1004.6
20260503200503 16 252 16.1 29.0 0.00 0.03 0.00 29 1004.4
20260503200008 16 275 17.7 27.4 0.00 0.03 0.00 29 1004.5
20260503195509 16 274 9.7 30.6 0.00 0.03 0.00 30 1004.5
20260503195001 16 331 12.9 32.2 0.00 0.03 0.00 30 1004.6
20260503194513 16 292 16.1 32.2 0.00 0.03 0.00 29 1004.7
20260503194009 16 328 19.3 32.2 0.00 0.03 0.00 29 1004.7
20260503193505 16 296 11.3 30.6 0.00 0.03 0.00 31 1004.8
20260503193011 16 331 16.1 30.6 0.00 0.03 0.00 30 1004.9
20260503192507 16 268 14.5 27.4 0.00 0.03 0.00 31 1004.9
20260503192003 16 306 16.1 29.0 0.00 0.03 0.00 30 1005.1
20260503191512 16 333 16.1 29.0 0.00 0.03 0.00 30 1005.2
20260503191009 16 322 12.9 35.4 0.00 0.03 0.00 29 1005.2
20260503190502 16 297 11.3 35.4 0.00 0.03 0.00 31 1005.3
20260503190013 16 277 14.5 29.0 0.00 0.03 0.00 29 1005.3
20260503185507 16 306 14.5 27.4 0.00 0.03 0.00 31 1005.5
20260503185002 16 253 9.7 33.8 0.00 0.03 0.00 31 1005.5
20260503184514 16 313 16.1 33.8 0.00 0.03 0.00 30 1005.6
20260503184007 15 325 14.5 29.0 0.00 0.03 0.00 31 1005.7
20260503183504 16 301 9.7 29.0 0.00 0.03 0.00 31 1005.7
20260503183015 16 301 17.7 29.0 0.00 0.03 0.00 31 1005.8
20260503182510 15 281 8.0 24.1 0.00 0.03 0.00 33 1005.8
20260503182003 15 342 14.5 35.4 0.00 0.03 0.00 30 1005.9
20260503181517 15 276 11.3 35.4 0.00 0.03 0.00 32 1006.0
20260503181007 15 290 16.1 32.2 0.00 0.03 0.00 30 1006.0
20260503180505 15 345 14.5 32.2 0.00 0.03 0.00 30 1006.2
20260503180026 15 269 19.3 32.2 0.00 0.03 0.00 30 1006.1
20260503175510 15 300 14.5 25.7 0.00 0.03 0.00 31 1006.0
20260503175003 15 261 11.3 25.7 0.00 0.03 0.00 32 1006.0
20260503174520 15 311 12.9 30.6 0.00 0.03 0.00 32 1006.0
20260503174012 15 324 14.5 30.6 0.00 0.03 0.00 31 1006.0
20260503173506 14 313 17.7 30.6 0.00 0.03 0.00 30 1006.1
20260503173037 14 332 16.1 29.0 0.00 0.03 0.00 32 1006.3
20260503172510 14 333 17.7 29.0 0.00 0.03 0.00 32 1006.5
20260503172003 14 313 14.5 38.6 0.00 0.03 0.00 34 1006.4
20260503171533 14 254 17.7 38.6 0.00 0.03 0.00 32 1006.5
20260503171010 13 318 19.3 37.0 0.00 0.03 0.00 33 1006.6
20260503170506 13 324 20.9 37.0 0.00 0.03 0.00 32 1006.7
20260503151006 11 304 12.9 25.7 0.00 0.03 0.00 41 1006.8
20260503150509 11 317 11.3 25.7 0.00 0.03 0.00 42 1006.7
20260503131006 7 9 16.1 24.1 0.00 0.03 0.00 72 1006.6
20260503130509 6 325 14.5 25.7 0.00 0.03 0.00 74 1006.5
20260503110508 5 288 4.8 14.5 0.00 0.03 0.00 91 1005.5
20260503090508 3 326 0.0 0.0 0.00 0.03 0.00 92 1006.0
20260503081518 4 9 0.0 0.0 0.00 0.03 0.00 91 1005.9
20260503081008 4 9 0.0 0.0 0.00 0.03 0.00 91 1005.9
20260503080508 4 9 0.0 0.0 0.00 0.03 0.00 91 1006.0
20260503072512 5 114 0.0 0.0 0.00 0.03 0.00 88 1006.1
20260503072010 6 114 0.0 0.0 0.00 0.03 0.00 88 1006.1
20260503071517 6 114 0.0 0.0 0.00 0.03 0.00 88 1006.2
20260503071007 6 114 0.0 0.0 0.00 0.03 0.00 88 1006.3
20260503070507 6 114 0.0 0.0 0.00 0.03 0.00 88 1006.2
20260503055007 8 114 0.0 0.0 0.00 0.03 0.00 85 1006.9
20260503054508 8 114 0.0 0.0 0.00 0.03 0.00 85 1006.9
20260503054003 8 114 0.0 0.0 0.00 0.03 0.00 85 1006.9
20260503053506 8 114 0.0 0.0 0.00 0.03 0.00 84 1007.0
20260503053007 8 114 0.0 1.6 0.00 0.03 0.00 85 1007.0
20260503052505 8 114 0.0 1.6 0.00 0.03 0.00 84 1007.1
20260503052009 8 114 0.0 0.0 0.00 0.03 0.00 85 1007.0
20260503051504 8 114 0.0 0.0 0.00 0.03 0.00 84 1007.0
20260503051003 8 114 0.0 0.0 0.00 0.03 0.00 84 1007.0
20260503050508 8 114 0.0 0.0 0.00 0.03 0.00 84 1007.1
20260503050003 8 114 0.0 1.6 0.00 0.03 0.00 84 1007.1
20260503045503 8 114 0.0 3.2 0.00 0.03 0.03 84 1007.1
20260503045007 8 115 0.0 3.2 0.00 0.03 0.03 84 1007.2
20260503044505 8 114 0.0 3.2 0.00 0.03 0.03 84 1007.2
20260503044006 8 98 1.6 3.2 0.00 0.03 0.03 84 1007.1
20260503043510 8 125 0.0 3.2 0.00 0.03 0.03 84 1007.1
20260503043006 8 125 0.0 3.2 0.00 0.03 0.03 84 1007.2
20260503042506 8 125 1.6 3.2 0.00 0.03 0.03 84 1007.3
20260503042011 8 130 1.6 4.8 0.00 0.03 0.03 84 1007.2
20260503041506 8 94 1.6 4.8 0.00 0.03 0.03 84 1007.2
20260503041006 8 127 0.0 6.4 0.00 0.03 0.03 84 1007.2
20260503040507 8 123 1.6 6.4 0.00 0.03 0.03 84 1007.3
20260503040004 8 94 1.6 4.8 0.00 0.03 0.03 84 1007.3
20260503035505 8 108 1.6 4.8 0.00 0.03 0.03 84 1007.4
20260503035009 8 96 3.2 4.8 0.00 0.03 0.03 83 1007.4
20260503034505 8 98 0.0 4.8 0.00 0.03 0.03 83 1007.4
20260503034010 8 119 0.0 4.8 0.00 0.03 0.03 84 1007.5
20260503033507 9 134 1.6 4.8 0.00 0.03 0.03 84 1007.5
20260503033010 9 108 0.0 4.8 0.00 0.03 0.03 84 1007.6
20260503032506 9 126 0.0 4.8 0.00 0.03 0.03 84 1007.8
20260503032009 9 142 0.0 4.8 0.00 0.03 0.03 83 1007.8
20260503031508 9 111 0.0 3.2 0.00 0.03 0.03 83 1007.9
20260503031009 9 130 0.0 0.0 0.00 0.03 0.03 83 1007.9
20260503030507 9 93 0.0 3.2 0.00 0.03 0.03 83 1008.0
20260503030010 9 93 0.0 4.8 0.00 0.03 0.03 83 1007.9
20260503025505 9 114 0.0 6.4 0.00 0.03 0.03 83 1008.0
20260503025008 9 98 3.2 6.4 0.00 0.03 0.03 83 1008.1
20260503024507 9 92 3.2 6.4 0.00 0.03 0.03 83 1008.3
20260503024007 9 98 3.2 4.8 0.00 0.03 0.03 84 1008.4
20260503023512 9 138 1.6 4.8 0.00 0.03 0.03 84 1008.6
20260503023030 10 124 0.0 4.8 0.00 0.03 0.03 84 1008.5
20260503022507 10 101 1.6 4.8 0.00 0.03 0.03 84 1008.5
20260503022011 10 288 0.0 0.0 0.00 0.03 0.03 84 1008.6
20260503021512 10 288 0.0 0.0 0.03 0.03 0.03 82 1008.6
20260503021008 10 288 0.0 0.0 0.03 0.03 0.03 82 1008.8
20260503020508 10 288 0.0 0.0 0.03 0.03 0.03 81 1008.8
20260503020015 10 288 0.0 0.0 0.03 0.03 0.03 81 1008.7
20260503015508 10 288 0.0 0.0 0.03 0.03 0.03 81 1008.7
20260503015009 10 288 0.0 0.0 0.03 0.03 0.03 80 1008.8
20260503014514 10 288 0.0 0.0 0.03 0.03 0.03 79 1008.7
20260503014009 10 288 0.0 0.0 0.03 0.03 0.03 79 1008.6
20260503013503 10 288 0.0 0.0 0.03 0.03 0.03 78 1008.7
20260503013014 10 288 0.0 0.0 0.03 0.03 0.03 77 1008.8
20260503012512 10 288 0.0 0.0 0.03 0.03 0.03 77 1008.7
20260503012003 11 288 0.0 3.2 0.03 0.03 0.03 77 1008.6
20260503011516 11 288 0.0 3.2 0.00 0.00 0.00 74 1008.8
20260503011010 11 288 0.0 4.8 0.00 0.00 0.00 71 1009.0
20260503010514 11 288 1.6 14.5 0.00 0.00 0.00 70 1009.1
20260503010024 11 297 4.8 20.9 0.00 0.00 0.00 67 1009.2
20260503005508 12 295 8.0 20.9 0.00 0.00 0.00 66 1009.4
20260503005007 12 300 9.7 20.9 0.00 0.00 0.00 63 1009.4
20260503004542 12 284 9.7 20.9 0.00 0.00 0.00 59 1009.3
20260503004008 13 279 11.3 37.0 0.00 0.00 0.00 57 1009.2
20260503003505 13 271 14.5 37.0 0.00 0.00 0.00 53 1009.1
20260503003018 13 265 20.9 33.8 0.00 0.00 0.00 51 1009.1
20260503002514 14 333 14.5 30.6 0.00 0.00 0.00 49 1008.9
20260503002006 14 282 17.7 29.0 0.00 0.00 0.00 47 1008.9
20260503001522 14 258 12.9 32.2 0.00 0.00 0.00 45 1008.7
20260503001011 15 311 19.3 32.2 0.00 0.00 0.00 44 1008.8
20260503000507 15 293 16.1 30.6 0.00 0.00 0.00 43 1008.7
20260503000026 15 291 9.7 32.2 0.00 0.00 0.00 41 1008.7
20260502235508 15 327 17.7 32.2 0.00 0.00 0.00 39 1008.6
20260502235008 15 331 12.9 32.2 0.00 0.00 0.00 38 1008.6
20260502234522 15 291 11.3 32.2 0.00 0.00 0.00 37 1008.6
20260502234008 15 286 14.5 24.1 0.00 0.00 0.00 37 1008.6
20260502233508 16 305 9.7 20.9 0.00 0.00 0.00 36 1008.5
20260502233023 16 321 11.3 30.6 0.00 0.00 0.00 36 1008.5
20260502232509 16 274 11.3 30.6 0.00 0.00 0.00 36 1008.5
20260502232006 16 283 11.3 27.4 0.00 0.00 0.00 36 1008.5
20260502231526 16 295 16.1 27.4 0.00 0.00 0.00 36 1008.5
20260502231010 16 331 11.3 25.7 0.00 0.00 0.00 36 1008.5
20260502230507 16 279 9.7 32.2 0.00 0.00 0.00 35 1008.5
20260502230023 16 245 12.9 32.2 0.00 0.00 0.00 34 1008.5